Showing default

HINCUBE, 39445

Orbit data source: Space-Track

HINCUBE, 39445 is a payload satellite owned by HiN Narvik (NO) in SSO that was launched on Thu, 21 Nov 2013 UTC via a DNEPR launch vehicle from the Orenburg, Russia (OREN). Payload-class satellites include a variety of spacecraft equipped with specific instruments for various scientific and technological missions. These include communications satellites like Starlink; space stations such as the ISS; scientific satellites like the Hubble; Earth observation satellites from companies like Planet Labs, Umbra, and HawkEye 360; GPS; miniature CubeSats for education and research; and military/defense satellites.

Loading next visibility...
Identifier
39445, 2013-066AF
Orbit
SSO
Country
Flag of NONO / NOR
Related business
Manufacturer
HiN Narvik
Mission
Non-operational Amateur Imaging
Bus & Motor
CUBESAT 1U, Unknown motor
Mass
1 kg wet, 1 kg dry
Launch date (UTC)
2013-11-21 (12 years ago)
Launch vehicle
DNEPR
Launch site
Orenburg, Russia (OREN)
Object type
Payload
Rocket body
Debris
Shape & HBR
Box, 0.1 m
Radar Cross Section
0.015 m², Small (<0.1 m²)

Expand to show TLE details & history
Last TLE update: 4 hours ago

TLE from 4 hours ago
0 HINCUBE
1 39445U 13066AF  26037.84044792  .00011999  00000-0  81272-3 0  9999
2 39445  97.7837   4.7193 0032617 295.3946  64.3906 15.06202771659895
Epoch: 2026-02-06T20:10Z
TLE epoch observation values (Epoch: 2026-02-06T20:10:14.700Z)
Latitude
0.00007°
Longitude
-74.81451°
Altitude
541.17 km
Speed
7.597 km/s
True Right ascension
00h 18m 52s
True Declination
0° 00' 00"
Sunlit
Object was in daylight at epoch
Visualization orbit readout
Latitude
Unknown
Longitude
Unknown
Altitude
Unknown
Speed
Unknown
Apparent Right ascension
Unknown
Apparent Declination
Unknown
Sunlit
N/A
Visualization observer readout
Local Sidereal Time
02:41:31
Azimuth
Unknown
Elevation
Unknown
Doppler factor
Unknown
Orbital elements
Apogee altitude
567.397 km
Perigee altitude
522.236 km
Semi-major axis
6,922.954 km
Eccentricity
0.00326
Inclination
97.7837°
RAAN
4.7193°
Arg. of periapsis
295.3946°
True anomaly
64.72824°
Mean anomaly
64.3906°
Eccentric anomaly
64.55936°
Mean motion
3.76796 °/min
Orbital period
95.54 mins
BSTAR
0.00081272
Loading maneuver chart data...
Computing Atmospheric mass density...
Loading historical data...
Loading historical data...
Loading historical data...
Loading historical data...
Loading historical data...
Loading historical data...
Loading historical data...

Documentation

Showing up to 5 results
|